Tracking 17921 objects as of 16-January-2017
HD Live streaming from Space Station
objects crossing your sky now

COSMOS 252 DEB

Track COSMOS 252 DEB now!
10-day predictions


NORAD ID: 3559
Int'l Code: 1968-097M
Perigee: 507.5 km
Apogee: 1,357.0 km
Inclination: 62.3 °
Period: 103.5 minutes
Semi major axis: 7303 km
RCS: 0.1149 m2 (medium)
Launch date: November 1, 1968
Source: Commonwealth of Independent States (former USSR) (CIS)
Launch site: TYURATAM MISSILE AND SPACE COMPLEX (TTMTR)

Note: This is SATELLITE DEBRIS
Your satellite tracking list
Your tracking list is empty





NASA's NSSDC Master Catalog

Two Line Element Set (TLE):
1  3559U 68097M   17014.96541759 +.00000215 +00000-0 +73797-4 0  9996
2  3559 062.2925 349.7653 0581585 112.3884 253.9826 13.91029276363328
Source of the keplerian elements: AFSPC